This demonstration page uses our WeatherBlox Daily Observations layout. Learn more.

Left ArrowRight Arrow

39.51506, -84.39828

Hourly Observations for January 29, 2019

Temp ( °F °C ) Dew Point ( °F °C ) Humidity (%) Winds ( mph kmh ) Pressure ( in mb ) Visibility ( mi km ) Precip ( " mm )
12:15 am 00:15 Cloudy 22 -5.7 13 -10.5 69 69 W 17 28 29.95 1014 10 16 0.00 0.00
12:35 am 00:35 Mostly Cloudy 19 -7.1 11 -11.9 69 69 W 20 31 29.97 1015 10 16 0.00 0.00
12:55 am 00:55 Cloudy 19 -7.5 10 -12.4 68 68 W 20 31 29.99 1015 10 16 0.00 0.00
1:15 am 01:15 Cloudy 18 -7.7 10 -12.4 69 69 W 17 28 29.99 1015 10 16 0.00 0.00
1:35 am 01:35 Windy with Snow Likely 18 -7.8 9 -12.6 69 69 W 21 33 30.00 1016 10 16 0.00 0.00
1:55 am 01:55 Cloudy 18 -7.9 9 -12.9 68 68 W 21 33 30.00 1016 10 16 0.00 0.00
2:15 am 02:15 Cloudy 17 -8.2 8 -13.3 67 67 W 18 30 29.99 1016 10 16 0.00 0.00
2:35 am 02:35 Partly Cloudy 17 -8.4 8 -13.5 67 67 W 21 33 30.00 1016 10 16 0.00 0.00
2:55 am 02:55 Cloudy 17 -8.1 8 -13.2 67 67 W 13 20 30.01 1016 10 16 0.00 0.00
3:15 am 03:15 Cloudy with Light Snow 17 -8.1 10 -12.5 71 71 W 15 24 30.01 1016 10 16 0.00 0.00
3:35 am 03:35 Cloudy 17 -8.3 8 -13.4 67 67 W 14 22 30.01 1016 10 16 0.00 0.00
3:55 am 03:55 Cloudy with Light Snow 17 -8.5 8 -13.5 68 68 W 17 28 30.02 1017 10 16 0.00 0.00
4:15 am 04:15 Cloudy 17 -8.6 7 -13.7 67 67 W 13 20 30.02 1017 10 16 0.00 0.00
4:35 am 04:35 Cloudy 16 -8.8 7 -14 66 66 W 15 24 30.02 1017 10 16 0.00 0.00
4:55 am 04:55 Cloudy with Light Snow 16 -8.7 8 -13.5 69 69 WSW 14 22 30.02 1017 10 16 0.00 0.00
5:15 am 05:15 Cloudy with Light Snow 17 -8.6 7 -13.7 67 67 WSW 17 28 30.03 1017 10 16 0.00 0.00
5:35 am 05:35 Cloudy with Light Snow 16 -8.8 8 -13.4 70 70 WSW 14 22 30.03 1017 7 11 0.00 0.00
5:55 am 05:55 Cloudy with Light Snow 16 -9.1 8 -13.1 73 73 W 16 26 30.03 1017 5 8 0.00 0.00
6:15 am 06:15 Cloudy with Light Snow 16 -9.1 8 -13.3 72 72 W 12 19 30.04 1017 10 16 0.00 0.00
6:35 am 06:35 Cloudy with Light Snow 16 -9.1 7 -14.1 67 67 W 10 17 30.04 1017 7 11 0.00 0.00
6:55 am 06:55 Cloudy with Light Snow 16 -9.1 8 -13.1 73 73 W 12 19 30.05 1018 7 11 0.00 0.00
7:15 am 07:15 Cloudy with Light Snow 16 -9.1 7 -13.9 68 68 W 15 24 30.05 1018 10 16 0.00 0.00
7:35 am 07:35 Cloudy with Light Snow 16 -9.1 7 -13.7 70 70 WSW 10 17 30.06 1018 10 16 0.00 0.00
7:55 am 07:55 Cloudy with Light Snow 16 -9.1 8 -13.2 72 72 W 10 17 30.06 1018 5 8 0.00 0.00
8:15 am 08:15 Cloudy with Light Snow 16 -9 8 -13.2 72 72 WSW 18 30 30.07 1018 10 16 0.00 0.00
8:35 am 08:35 Cloudy with Light Snow 15 -9.2 7 -13.8 70 70 W 10 17 30.07 1018 10 16 0.00 0.00
8:55 am 08:55 Cloudy with Light Snow 16 -9.1 8 -13.2 72 72 WSW 13 20 30.08 1019 4 6 0.00 0.00
9:15 am 09:15 Cloudy 15 -9.2 6 -14.6 65 65 W 18 30 30.08 1019 10 16 0.00 0.00
9:35 am 09:35 Cloudy 16 -8.9 6 -14.2 66 66 WSW 15 24 30.09 1019 10 16 0.00 0.00
9:55 am 09:55 Cloudy with Light Snow 16 -8.9 8 -13.4 70 70 WSW 13 20 30.09 1019 7 11 0.00 0.00
10:15 am 10:15 Cloudy with Light Snow 16 -8.9 7 -13.7 69 69 WSW 17 28 30.09 1019 10 16 0.00 0.00
10:35 am 10:35 Cloudy 16 -8.8 7 -13.8 67 67 WSW 20 31 30.10 1019 10 16 0.00 0.00
10:55 am 10:55 Cloudy with Light Snow 16 -8.7 7 -14.1 65 65 WSW 18 30 30.10 1019 10 16 0.00 0.00
11:15 am 11:15 Windy with Snow Likely 16 -8.7 8 -13.5 69 69 WSW 22 35 30.11 1020 7 11 0.00 0.00
11:35 am 11:35 Cloudy 16 -9 5 -14.8 63 63 WSW 20 31 30.10 1019 10 16 0.00 0.00
11:55 am 11:55 Windy with Snow Likely 16 -9.1 6 -14.7 64 64 WSW 21 33 30.10 1019 10 16 0.00 0.00
12:15 pm 12:15 Mostly Cloudy 15 -9.4 4 -15.3 63 63 W 23 37 30.11 1020 10 16 0.00 0.00
12:35 pm 12:35 Cloudy 15 -9.2 4 -15.3 62 62 WSW 18 30 30.10 1019 10 16 0.00 0.00
12:55 pm 12:55 Cloudy 16 -8.9 4 -15.3 60 60 WSW 21 33 30.09 1019 10 16 0.00 0.00
1:15 pm 13:15 Cloudy with Light Snow 16 -8.7 4 -15.6 58 58 WSW 18 30 30.08 1019 10 16 0.00 0.00
1:35 pm 13:35 Cloudy 18 -7.8 6 -14.6 59 59 WSW 18 30 30.08 1019 10 16 0.00 0.00
1:55 pm 13:55 Mostly Cloudy 19 -7 5 -15.2 52 52 WSW 15 24 30.06 1018 10 16 0.00 0.00
2:15 pm 14:15 Cloudy 18 -7.7 4 -15.7 53 53 WSW 16 26 30.06 1018 10 16 0.00 0.00
2:35 pm 14:35 Mostly Cloudy 19 -7.2 2 -16.4 48 48 W 20 31 30.05 1017 10 16 0.00 0.00
2:55 pm 14:55 Partly Cloudy 19 -7.1 2 -16.4 48 48 WSW 18 30 30.04 1017 10 16 0.00 0.00
3:15 pm 15:15 Mostly Cloudy 18 -7.6 2 -16.6 49 49 WSW 15 24 30.06 1018 10 16 0.00 0.00
3:35 pm 15:35 Cloudy 19 -7.2 2 -16.7 47 47 SW 23 37 30.06 1018 10 16 0.00 0.00
3:55 pm 15:55 Cloudy 19 -7.3 2 -16.8 47 47 SW 17 28 30.06 1018 10 16 0.00 0.00
4:15 pm 16:15 Cloudy 19 -7.1 2 -16.5 47 47 WSW 16 26 30.06 1018 10 16 0.00 0.00
4:35 pm 16:35 Cloudy 19 -7.1 2 -16.6 47 47 WSW 17 28 30.06 1018 10 16 0.00 0.00
4:55 pm 16:55 Cloudy 20 -6.7 2 -16.4 46 46 WSW 18 30 30.06 1018 10 16 0.00 0.00
5:15 pm 17:15 Mostly Cloudy 19 -7.2 1 -17.1 45 45 WSW 23 37 30.08 1018 10 16 0.00 0.00
5:35 pm 17:35 Cloudy 19 -7.4 2 -16.9 47 47 W 15 24 30.08 1018 10 16 0.00 0.00
5:55 pm 17:55 Mostly Cloudy 19 -7.5 1 -17.4 45 45 WSW 21 33 30.09 1019 10 16 0.00 0.00
6:15 pm 18:15 Mostly Cloudy 18 -7.7 1 -17.3 46 46 W 16 26 30.10 1019 10 16 0.00 0.00
6:35 pm 18:35 Mostly Cloudy 18 -7.9 1 -17 48 48 WSW 12 19 30.10 1019 10 16 0.00 0.00
7:15 pm 19:15 Clear 17 -8.4 2 -16.4 53 53 WSW 12 19 30.10 1019 10 16 0.00 0.00
7:35 pm 19:35 Clear 16 -8.7 3 -16.3 55 55 SW 8 13 30.10 1019 10 16 0.00 0.00
7:55 pm 19:55 Clear 16 -8.7 2 -16.4 54 54 WSW 8 13 30.10 1019 10 16 0.00 0.00
8:15 pm 20:15 Partly Cloudy 16 -8.9 3 -16.2 56 56 SW 7 11 30.09 1019 10 16 0.00 0.00
8:35 pm 20:35 Cloudy 16 -8.9 4 -15.8 58 58 SW 6 9 30.09 1019 10 16 0.00 0.00
8:55 pm 20:55 Cloudy 16 -8.8 4 -15.7 58 58 SW 9 15 30.09 1019 10 16 0.00 0.00
9:15 pm 21:15 Cloudy 17 -8.5 6 -14.7 61 61 WSW 15 24 30.09 1019 10 16 0.00 0.00
9:35 pm 21:35 Cloudy 17 -8.5 8 -13.2 69 69 WSW 9 15 30.09 1019 7 11 0.00 0.00
9:55 pm 21:55 Cloudy with Light Snow 16 -8.9 11 -11.9 79 79 WSW 8 13 30.09 1019 3 4 0.00 0.00
10:15 pm 22:15 Cloudy with Light Snow 16 -8.9 11 -11.5 82 82 W 5 7 30.08 1019 3 4 0.00 0.00
10:35 pm 22:35 Cloudy with Light Snow 16 -9 12 -11.2 84 84 W 7 11 30.09 1019 2 3 0.00 0.00
10:55 pm 22:55 Cloudy with Snow 15 -9.7 11 -11.9 84 84 WNW 13 20 30.09 1019 1 2 0.00 0.00
11:15 pm 23:15 Cloudy with Light Snow 14 -10.1 9 -13 80 80 W 10 17 30.10 1019 2 3 0.00 0.00
11:35 pm 23:35 Cloudy with Light Snow 13 -10.5 8 -13.3 80 80 WNW 16 26 30.10 1019 2 3 0.00 0.00
11:55 pm 23:55 Cloudy with Light Snow 12 -11.1 7 -13.7 81 81 WNW 9 15 30.11 1020 2 2 0.00 0.00

Powered by AerisWeather